Regional Weather Roundup
Issued by NWS Sioux Falls, SD

Home | Current Version | Previous Version | Text Only | Print | Product List | Glossary On
Versions: 1 2 3 4 5 6 7 8 9 10 11 12 13 14 15 16 17 18 19 20 21 22 23 24 25 26 27 28 29 30 31 32 33 34 35 36 37 38 39 40 41 42 43 44 45 46 47 48 49 50
000
ASUS43 KFSD 020710
RWRFSD

WEATHER ROUNDUP FOR SE SOUTH DAKOTA/SW MINNESOTA/NW IOWA
NATIONAL WEATHER SERVICE SIOUX FALLS SD
100 AM CST MON MAR 02 2015

NOTE: "FAIR" INDICATES FEW OR NO CLOUDS BELOW 12,000 FEET WITH NO
SIGNIFICANT WEATHER AND OR OBSTRUCTIONS TO VISIBILITY.


SDZ038>040-050-052>070-020800-
SOUTHEAST SOUTH DAKOTA

CITY           SKY/WX    TMP DP  RH WIND       PRES   REMARKS
CHAMBERLAIN    CLEAR     10   6  84 SE3       30.41S
HURON          PTCLDY     5   2  87 CALM      30.44F
MADISON        FAIR       5   5 100 N5        30.42F WCI  -4
MITCHELL       CLEAR     14  10  84 CALM      30.46S
SIOUX FALLS    CLEAR     13   9  84 CALM      30.44S
WINNER         FAIR      14   3  61 SE6       30.38F WCI   5
YANKTON        PTCLDY    16   9  73 SW5       30.48R WCI   9
$$

MNZ071-072-080-081-089-090-097-098-020800-
SOUTHWEST MINNESOTA

CITY           SKY/WX    TMP DP  RH WIND       PRES   REMARKS
FAIRMONT       CLEAR     14   7  73 W9        30.44R WCI   2
JACKSON        CLEAR     16  10  79 NW9       30.44R WCI   4
LUVERNE        PTCLDY    12   9  85 CALM      30.45S
MARSHALL       CLEAR     10   3  72 W7        30.46S WCI   0
MONTEVIDEO     CLEAR     10   7  85 NW3       30.46R
PIPESTONE      PTCLDY    10   9  92 N3        30.41F
REDWOOD FALLS  CLEAR     12   7  80 W9        30.46R WCI   0
TRACY          CLEAR     14   9  79 W5        30.45R WCI   6
WINDOM         CLEAR     10   7  85 W6        30.45R WCI   1
WORTHINGTON    CLEAR     12   7  79 NW8       30.45S WCI   1
$$

IAZ001>003-012>014-020>022-031-032-NEZ013-014-SDZ071-020800-
NORTHWEST IOWA

CITY           SKY/WX    TMP DP  RH WIND       PRES   REMARKS
CHEROKEE       PTCLDY    14  11  91 NE3       30.46F
DENISON        PTCLDY    12   9  85 CALM      30.46S
ESTHERVILLE    CLEAR      9   6  88 NW7       30.44R WCI  -2
LE MARS        PTCLDY    10   9  92 CALM      30.48R
ORANGE CITY    PTCLDY    21  14  73 N3        30.45R
SHELDON        PTCLDY     9   7  92 N3        30.44R
SIOUX CITY     FAIR      17  12  80 CALM      30.49R
SPENCER        PTCLDY    10   7  87 N6        30.45S WCI   0
STORM LAKE     PTCLDY    14  10  85 N8        30.45F WCI   3
$$

ABBREVIATIONS USED IN REMARKS
   TC - TEMPERATURE IN CELSIUS
  WCI - WIND CHILL INDEX
   HX - HEAT INDEX
  VSB - VISIBILITY




USA.gov is the U.S. government's official web portal to all federal, state and local government web resources and services.